Presure
209 197 168 183 165 165 155 159 163 160 139 156 160 156 137 162 167 164 165 179 179 156 170 155 169 165 158 170 183 172 175 170 170 175 167 182 193 188 201 177 169 198 186 200 192 185 197
175 178 208 174 193 173 158 167 158 158 161 155 157 161 159 162 160 167 174 168 174 187 186 146 156 170 164 171 171 174 172 162 173 184 162 165 169 171 202 170 216 179 170 174 190 221 190
183 171 183 183 165 187 179 169 171 166 145 164 158 158 153 158 164 155 177 170 191 185 172 144 144 162 173 173 172 174 175 183 142 164 178 190 185 160 172 193 187 220 185 176 176 181 179
169 188 198 213 189 165 179 198 165 164 165 162 161 155 152 160 163 168 171 165 183 185 173 173 145 162 168 172 170 170 169 174 170 160 181 178 171 184 178 157 155 179 183 207 176 174 203
164 183 187 187 165 196 171 187 176 170 155 165 168 156 157 160 162 160 174 181 183 175 178 169 141 164 172 164 167 168 162 163 162 163 167 147 153 173 163 199 158 169 224 175 163 169 159
167 178 194 209 210 190 193 170 193 170 173 174 164 156 161 161 154 188 189 186 178 173 167 163 158 173 163 162 167 164 164 168 162 170 171 147 167 179 157 164 183 191 205 145 136 141 178
157 160 225 212 203 198 194 181 179 191 174 167 180 171 168 175 166 192 175 171 172 165 172 161 172 169 164 168 168 163 178 164 170 175 156 182 186 172 135 170 162 153 133 201 202 206 204
157 172 223 204 198 205 196 186 171 184 187 173 181 177 173 177 178 171 174 171 172 170 169 167 170 165 172 170 174 171 157 163 171 164 175 177 169 179 180 145 169 156 207 206 214 186 200
149 189 208 195 192 196 201 186 182 178 184 179 186 171 167 173 154 174 171 173 176 185 182 178 174 167 172 180 177 163 169 167 170 155 176 158 174 172 189 195 211 227 142 179 207 193 189
183 195 226 210 215 203 199 183 189 189 187 174 179 172 167 170 161 167 185 187 180 187 194 187 171 178 160 170 171 156 162 166 149 172 157 176 177 187 194 209 214 208 226 303 418 416 487
188 191 200 205 218 226 193 196 194 185 189 187 180 173 167 153 158 171 187 183 180 188 182 178 167 178 167 160 145 158 160 170 174 187 176 187 190 197 208 233 221 245 423 415 485 505 496
166 188 180 208 201 215 194 193 188 194 183 177 174 177 168 163 159 163 182 187 188 177 173 166 179 167 168 175 177 169 188 186 184 168 185 201 187 206 218 225 399 362 402 384 444 452 464
176 202 209 221 194 213 192 191 194 198 184 181 174 168 173 157 169 192 174 171 178 188 187 179 155 157 182 142 175 192 198 175 174 182 189 201 189 206 223 391 331 390 384 434 446 458 437
186 198 209 220 235 201 193 209 202 190 182 178 172 167 169 160 163 193 180 169 183 186 166 184 185 190 193 193 186 166 179 183 186 190 206 189 194 218 400 331 397 380 455 431 429 421 399
191 203 215 223 227 198 202 204 190 186 181 178 172 167 172 159 163 187 182 179 170 177 192 158 175 184 183 193 190 185 173 173 179 202 203 199 242 265 350 314 381 380 424 419 402 405 403
190 213 209 208 214 193 205 195 178 184 180 174 160 166 163 180 181 181 176 172 178 194 188 188 169 171 192 170 160 178 184 200 194 205 221 206 233 367 326 335 388 392 403 407 387 386 390
181 219 211 206 205 181 199 192 186 181 181 173 172 168 160 163 169 169 176 191 173 184 180 185 175 191 199 189 171 179 177 192 196 203 197 240 293 351 303 398 391 378 386 401 400 386 378
149 214 208 195 196 194 192 192 188 185 179 171 167 156 165 171 164 174 172 168 185 181 186 187 190 195 162 183 175 182 188 208 200 201 213 233 371 340 294 390 384 374 367 394 387 368 367
212 220 204 215 208 201 200 194 171 182 175 188 170 172 162 158 178 173 151 189 198 187 151 176 195 187 162 176 172 193 200 199 208 220 223 230 353 324 299 398 380 367 356 356 381 371 359
222 222 212 216 206 190 208 168 182 198 178 174 161 168 165 159 175 170 183 167 186 153 185 192 196 183 200 203 187 191 191 202 199 209 233 239 360 311 311 396 384 370 352 350 358 366 360
211 213 217 212 188 213 196 184 208 202 173 169 167 174 162 165 171 170 175 171 199 186 171 171 150 189 169 191 188 205 205 205 199 221 222 255 348 298 321 392 378 367 354 346 342 352 366
200 208 188 199 209 197 191 175 184 184 176 169 166 160 162 155 171 147 177 183 135 194 202 177 201 184 204 187 187 191 193 192 199 222 221 258 337 295 320 396 377 361 358 348 346 339 342
209 200 199 188 205 192 181 172 184 189 165 170 166 161 150 174 163 185 173 188 185 167 200 151 192 199 176 189 194 198 193 195 210 214 230 265 331 298 315 409 383 367 350 347 342 345 337
206 211 213 203 200 187 179 193 195 188 172 171 167 151 167 176 163 182 170 190 189 179 187 186 202 194 191 195 189 191 207 199 214 219 236 337 305 302 313 341 390 369 357 346 344 342 338
212 198 199 198 200 191 191 188 187 184 173 166 172 168 167 174 169 180 185 189 181 175 165 193 206 190 187 198 188 199 196 202 210 219 242 368 300 299 308 342 379 370 357 349 349 353 341
202 204 198 184 193 191 184 182 175 181 170 161 174 154 180 161 177 176 194 193 194 207 187 206 195 180 202 206 191 186 196 212 212 226 260 355 297 300 310 322 325 370 359 357 337 358 347
211 180 194 194 188 186 183 183 176 168 170 174 154 169 174 177 181 192 174 193 192 185 198 181 185 190 209 195 188 194 206 208 216 229 348 327 294 295 302 314 315 346 357 344 313 297 312
208 196 178 201 195 181 183 180 180 191 165 174 174 182 179 153 186 186 186 203 170 197 191 196 181 205 198 196 192 207 205 213 228 251 345 332 291 296 298 305 319 322 356 359 339 300 297
197 199 196 196 186 183 187 171 188 167 188 166 166 177 181 188 198 186 196 182 187 193 195 181 211 198 186 190 197 207 208 220 236 338 343 326 290 293 298 302 324 315 344 363 356 331 297
Wind_Speed
48 39 38 40 45 45 42 41 41 44 37 42 43 41 34 46 45 45 41 46 42 33 33 31 31 35 37 37 35 36 32 41 39 42 51 46 37 35 44 55 64 46 63 50 66 78 71
51 45 42 38 40 45 45 44 43 44 45 45 45 44 44 47 44 48 48 46 47 44 37 33 35 37 40 41 40 38 38 46 45 45 55 57 59 55 47 65 59 67 69 69 64 57 78
58 43 47 39 41 42 48 48 49 49 43 47 47 44 43 46 46 44 54 51 47 42 39 37 36 43 42 43 45 45 46 52 57 51 50 61 54 69 59 62 61 66 68 71 69 70 81
46 63 66 50 43 43 44 42 48 49 51 52 51 47 46 50 52 53 53 52 47 42 39 40 41 47 45 46 49 48 51 54 57 51 65 65 65 66 64 76 76 55 60 68 70 79 66
44 64 61 52 46 47 44 44 48 48 50 53 51 49 51 51 52 53 54 50 46 41 41 43 42 49 47 50 55 53 57 59 54 64 60 65 63 52 71 77 60 68 89 64 65 77 82
49 63 68 52 50 48 48 43 43 49 51 53 52 50 53 53 52 52 46 43 42 43 46 50 53 47 53 53 60 60 62 66 66 72 73 61 60 83 66 58 78 82 88 91 90 88 94
52 55 54 49 49 50 47 46 47 47 49 50 51 54 56 55 54 40 45 46 46 50 53 53 51 52 56 56 60 65 72 68 76 79 57 89 93 72 80 72 79 86 90 104 108 113 117
52 66 54 50 51 49 47 44 47 49 48 47 49 51 52 52 50 52 48 50 53 54 56 58 56 59 59 62 64 67 67 72 81 76 89 92 80 91 88 85 91 95 117 113 112 107 114
50 74 64 55 54 49 47 46 47 48 48 46 44 51 54 52 56 54 54 56 59 59 59 59 56 58 63 61 64 70 74 77 83 65 94 72 93 90 108 111 120 129 103 111 115 115 123
81 78 57 53 48 49 47 48 48 46 49 46 45 50 54 53 57 59 57 58 57 56 52 55 57 59 67 66 72 62 74 81 67 90 77 99 101 110 116 120 122 118 133 118 77 76 59
88 79 72 59 48 45 46 46 45 47 47 44 45 49 55 56 59 61 61 59 58 59 55 58 62 63 66 70 55 69 73 88 91 100 97 110 111 113 119 130 132 130 72 70 45 37 41
64 83 70 60 50 43 44 45 44 44 45 47 49 48 54 58 60 62 58 58 60 59 62 63 65 66 72 78 81 85 89 96 94 90 109 119 111 122 127 131 73 76 64 63 43 37 35
76 85 73 58 51 42 44 45 43 42 43 46 49 54 54 58 62 58 61 61 62 64 65 66 66 69 76 59 83 88 87 86 92 102 113 117 126 126 132 72 80 67 67 49 36 19 29
85 82 73 60 48 43 43 41 41 40 44 47 51 54 56 60 64 59 62 64 63 68 68 69 73 76 79 81 85 84 98 101 107 111 119 110 125 131 67 81 67 62 32 36 36 31 34
82 78 64 56 47 41 40 39 41 42 46 48 50 54 57 62 65 62 60 61 66 67 70 71 76 79 82 85 87 94 90 94 103 117 119 114 126 127 80 85 67 60 37 31 37 35 31
76 75 69 51 43 44 38 41 50 46 47 49 56 56 61 60 64 61 64 68 70 70 70 73 81 83 84 92 79 97 105 111 118 123 126 123 124 73 80 78 61 53 38 31 38 39 34
67 70 65 53 45 53 42 47 47 50 47 49 53 56 63 64 63 66 67 66 70 70 74 78 78 82 85 87 92 100 100 112 115 120 117 130 110 74 88 55 49 47 40 34 31 34 34
49 73 63 52 51 48 49 50 49 48 49 51 56 62 62 63 67 69 70 72 70 75 79 81 84 84 76 95 101 107 112 116 119 118 126 129 68 76 89 52 47 44 40 30 31 31 31
79 69 60 56 49 45 48 53 53 48 51 50 56 60 65 67 69 73 61 72 71 75 65 84 85 87 82 98 100 111 116 115 122 127 129 132 78 80 90 46 44 40 40 37 29 30 28
67 61 59 49 48 50 49 54 53 53 52 52 61 62 67 69 73 73 76 80 78 66 81 84 88 85 97 96 103 112 111 119 116 126 131 133 70 86 87 44 39 35 37 37 34 32 31
59 55 48 46 54 45 50 53 52 50 52 57 63 62 70 74 76 77 80 86 78 79 83 86 71 92 95 100 109 112 117 119 118 131 129 133 71 91 83 44 41 35 33 35 35 35 34
55 51 51 51 46 49 53 57 53 51 53 61 64 68 73 68 79 63 83 87 65 86 88 90 95 90 98 105 104 110 110 112 122 130 129 133 76 91 78 40 39 38 34 33 33 33 32
57 52 52 52 46 52 56 54 55 53 61 62 66 71 65 78 79 81 86 87 88 79 91 73 98 99 97 107 112 115 111 118 127 127 134 135 78 89 77 36 35 34 36 35 35 33 31
53 49 41 46 49 55 60 57 57 56 61 63 67 66 78 80 81 86 85 89 91 92 95 98 102 101 104 111 106 113 124 122 129 130 135 87 90 86 76 62 35 35 32 33 35 33 31
52 47 46 44 49 54 56 57 57 59 63 64 66 74 76 82 86 90 91 91 90 86 87 103 106 102 106 113 110 122 120 127 129 131 136 62 91 85 77 61 44 38 37 35 35 34 31
53 49 43 52 52 56 58 59 60 62 64 65 68 71 80 81 90 88 92 93 95 100 100 106 103 102 116 118 112 110 127 132 131 134 138 66 88 83 75 68 63 44 40 37 36 32 30
51 45 47 52 59 59 60 61 63 61 64 66 70 79 83 87 91 93 81 96 96 95 104 96 106 111 120 117 114 123 132 130 133 136 71 79 89 84 78 70 64 53 44 41 39 38 34
47 45 52 52 54 58 61 63 66 67 64 69 76 80 84 74 91 86 95 99 87 103 105 108 102 112 117 120 121 129 130 133 136 141 69 71 85 78 74 69 61 60 47 39 37 38 38
42 45 50 53 58 60 62 63 68 63 71 74 78 82 88 91 94 95 99 98 102 106 108 101 113 117 110 121 126 131 132 138 140 76 68 71 83 77 73 69 61 62 54 43 38 35 37
Wind_Direction
337 321 301 295 294 295 303 303 294 297 311 307 308 310 311 316 321 320 311 317 311 288 296 277 294 294 289 286 304 275 275 264 267 258 258 275 270 263 273 258 255 250 250 253 251 248 247
331 324 312 299 299 293 300 298 299 300 300 304 306 305 309 312 315 313 310 311 308 310 310 281 288 297 295 299 293 295 283 271 269 299 260 271 252 257 288 252 294 257 255 252 259 264 251
334 306 319 301 299 298 293 296 296 297 303 300 305 307 308 309 312 309 309 310 309 306 297 289 290 299 301 299 300 303 300 305 270 263 287 300 278 260 250 275 270 289 249 253 253 254 255
318 332 332 315 302 298 297 287 295 297 297 301 303 306 308 309 310 310 307 312 305 304 294 297 298 296 297 302 299 303 299 301 296 277 298 294 282 289 256 261 260 274 245 268 257 254 259
307 328 323 313 298 301 295 295 289 292 301 295 296 302 303 306 308 310 307 303 303 299 301 294 298 298 302 300 303 302 300 297 296 292 299 252 274 284 254 295 271 262 287 263 254 256 253
309 322 324 313 304 302 299 296 294 293 292 293 297 302 300 304 309 305 300 301 301 298 293 291 295 301 300 302 301 300 300 298 299 300 301 269 298 303 265 286 289 302 298 250 262 267 281
300 305 314 310 305 300 297 295 296 291 290 295 293 294 298 300 304 303 302 302 301 296 298 294 298 298 297 298 299 301 301 303 301 300 297 299 297 301 277 288 288 247 276 297 295 288 287
299 318 315 310 308 300 297 295 296 295 293 294 295 296 300 304 309 306 303 300 298 296 296 296 301 300 301 300 300 299 302 303 300 304 302 300 306 304 308 276 296 272 297 287 288 284 272
301 320 319 308 307 303 295 294 294 297 295 296 296 297 299 302 310 307 302 298 296 296 295 295 294 296 298 300 298 300 301 302 300 305 297 305 303 307 301 304 303 299 265 280 281 270 281
314 318 314 305 299 297 295 294 294 292 293 293 293 295 296 300 306 307 297 298 301 305 308 300 299 303 301 302 302 300 305 303 300 298 307 301 306 303 302 303 302 302 299 294 283 277 272
312 315 315 307 303 298 295 290 290 292 291 292 292 294 295 306 307 309 308 307 306 308 304 297 299 301 300 304 303 308 309 300 300 295 306 300 304 305 308 305 305 303 294 290 289 284 275
304 310 308 306 304 297 290 289 290 288 291 291 294 294 295 301 307 308 308 308 307 302 299 301 302 303 301 299 298 303 299 297 299 313 306 303 312 313 312 310 307 303 298 293 289 287 279
303 309 310 305 298 290 287 288 287 287 288 291 294 296 298 305 305 303 306 305 307 306 304 303 306 309 301 304 303 299 301 299 311 310 307 307 313 316 314 316 310 307 303 300 296 274 275
305 308 308 302 295 290 289 284 282 287 288 288 293 298 301 306 308 308 306 305 306 305 307 306 305 303 302 300 300 313 303 304 307 311 307 316 315 315 317 316 312 310 302 299 294 287 279
302 306 302 297 293 286 288 281 284 284 285 288 295 300 299 305 308 307 305 303 304 304 307 310 303 302 304 304 303 303 315 317 318 311 314 318 318 322 323 322 316 313 301 291 284 285 281
299 301 299 289 288 288 284 279 285 284 287 291 300 299 300 305 306 306 304 304 306 307 305 302 307 310 306 312 309 310 309 307 312 315 317 322 325 325 325 325 316 315 307 289 286 285 281
295 293 291 296 285 288 280 280 281 285 286 292 295 297 304 306 307 307 308 308 307 304 304 303 310 306 311 304 310 312 319 314 317 320 324 326 329 328 329 322 318 314 310 296 287 282 284
278 291 289 291 287 280 278 277 280 282 286 292 295 301 301 303 306 306 309 311 306 304 304 306 310 308 319 305 316 314 315 314 320 325 325 329 329 330 331 324 319 316 313 302 294 288 285
285 285 285 286 281 280 275 274 291 286 290 291 294 296 300 307 306 306 314 311 309 304 312 310 314 309 319 313 320 312 313 320 322 325 330 332 332 332 332 325 320 317 313 310 292 288 283
276 279 283 281 282 280 277 289 287 282 289 291 297 297 301 307 306 308 309 312 310 312 311 312 314 317 317 311 315 316 323 322 329 330 331 334 332 333 334 325 321 316 311 309 304 291 287
272 275 274 276 277 273 275 279 280 282 290 290 294 296 303 306 305 309 308 310 313 311 313 315 318 313 321 315 317 318 320 324 332 330 333 335 333 334 335 325 324 318 312 308 307 303 288
267 268 276 274 274 270 274 284 286 286 287 289 296 303 304 314 306 315 308 309 311 314 317 313 318 321 320 318 320 323 328 333 332 330 334 336 335 335 338 328 323 319 317 313 307 304 302
263 267 269 274 267 270 278 286 284 285 289 290 296 303 314 303 310 307 307 309 311 317 316 317 319 320 322 319 320 322 331 333 330 332 334 338 335 336 338 333 325 320 319 313 310 306 301
258 264 263 264 265 271 278 277 280 282 287 292 298 306 302 302 310 306 310 310 311 313 318 318 322 322 321 320 326 328 325 332 331 333 333 337 335 336 339 343 335 329 323 318 313 308 302
257 262 265 265 269 271 274 278 280 282 290 298 299 300 305 303 308 305 309 310 313 317 319 320 322 318 322 320 328 325 332 331 331 332 333 337 334 336 338 344 343 336 330 325 320 310 306
254 258 261 267 269 270 276 280 288 286 295 304 300 312 300 311 304 310 310 314 315 319 318 321 318 323 321 320 329 333 332 328 331 331 335 337 334 334 337 342 343 341 333 327 324 317 309
254 264 264 264 267 271 277 281 287 296 298 301 309 302 301 303 305 309 314 314 316 319 319 320 320 321 319 324 331 330 326 330 331 331 334 335 333 335 337 340 341 343 335 329 323 325 325
257 260 267 269 270 275 278 284 288 290 303 301 298 301 302 308 308 313 312 316 318 319 318 318 324 321 322 323 329 326 328 329 329 331 332 333 331 333 334 337 338 341 336 324 318 316 319
259 264 267 268 272 277 281 291 288 305 299 299 304 301 303 307 311 312 314 315 317 317 317 322 317 319 328 330 327 326 328 327 329 329 330 331 330 331 333 335 337 338 338 327 317 309 312